Ft Riley, KS

5:29 AM CDT on October 18, 2017 (GMT -0500)
Marshall Army Air Field

Weather History for KFRI - October, 2012

Change the Weather History Date:

Saturday, October 6, 2012

  Actual Average (KMHK) Record (KMHK)
Temperature  
Mean Temperature 42 °F -  
Max Temperature 45 °F 71 °F 89 °F (1997)
Min Temperature 39 °F 44 °F 30 °F (2000)
Degree Days  
Heating Degree Days 23    
Moisture  
Dew Point 31 °F    
Average Humidity 69    
Maximum Humidity 97    
Minimum Humidity 40    
Precipitation  
Precipitation 0.00 in - - ()
Sea Level Pressure  
Sea Level Pressure 30.36 in    
Wind  
Wind Speed 3 mph (North)    
Max Wind Speed 12 mph    
Max Gust Speed -    
Visibility 7 miles    
Events      
Averages and records for this station are not official NWS values.
T = Trace of Precipitation, MM = Missing Value Source: NWS Daily Summary

Daily Weather History Graph

Daily Weather History Graph

Search for Another Location

Airport or City:

Trip Planner

Search our weather history database for the weather conditions in past years. The results will help you decide how hot, cold, wet, or windy it might be!

Date:

Astronomy

Oct. 06, 2012 Rise Set
Actual Time 7:28 AM CDT 7:01 PM CDT
Civil Twilight 7:01 AM CDT 7:27 PM CDT
Nautical Twilight 6:30 AM CDT 7:58 PM CDT
Astronomical Twilight 5:59 AM CDT 8:29 PM CDT
Moon 11:19 PM CDT (10/6) 1:21 PM CDT (10/6)
Length of Visible Light 12h 26m
Length of Day
11h 32m
Waning Gibbous, 65% of the Moon is Illuminated
Oct 6
Waning Gibbous
Oct 8
Last Quarter
Oct 15
New
Oct 21
First Quarter
Oct 29
Full

Hourly Weather History & Observations

Time (CDT) Temp. Windchill Dew Point Humidity Pressure Visibility Wind Dir Wind Speed Gust Speed Precip Events Conditions
12:12 AM 39.2 °F - 35.6 °F 87% 30.33 in 1.5 mi Calm Calm - N/A   Overcast
12:14 AM 39.2 °F - 37.4 °F 93% 30.34 in 1.8 mi Calm Calm - N/A   Overcast
12:15 AM 39.2 °F - 37.4 °F 93% 30.34 in 2.0 mi Calm Calm - N/A   Overcast
12:17 AM 39.2 °F - 37.4 °F 93% 30.34 in 2.5 mi Calm Calm - N/A   Overcast
12:18 AM 39.2 °F - 37.4 °F 93% 30.34 in 3.0 mi Calm Calm - N/A   Overcast
12:28 AM 41.0 °F - 37.4 °F 87% 30.34 in 2.5 mi Calm Calm - N/A   Overcast
12:34 AM 41.0 °F - 37.4 °F 87% 30.35 in 3.0 mi Calm Calm - N/A   Overcast
12:55 AM 39.6 °F 36.3 °F 38.8 °F 97% 30.36 in 8.0 mi South 4.6 mph - N/A   Overcast
1:55 AM 41.7 °F 39.8 °F 36.7 °F 82% 30.36 in 10.0 mi SSW 3.5 mph - N/A   Mostly Cloudy
2:55 AM 42.6 °F - 36.9 °F 80% 30.36 in 10.0 mi Calm Calm - N/A   Partly Cloudy
3:55 AM 42.1 °F - 35.1 °F 76% 30.34 in 5.0 mi Calm Calm - N/A   Haze
4:55 AM 40.8 °F 37.8 °F 33.6 °F 76% 30.33 in 5.0 mi NE 4.6 mph - N/A   Haze
5:55 AM 40.5 °F 37.3 °F 33.6 °F 77% 30.34 in 10.0 mi North 4.6 mph - N/A   Mostly Cloudy
6:55 AM 40.6 °F 36.0 °F 32.4 °F 72% 30.35 in 10.0 mi North 6.9 mph - N/A   Overcast
7:30 AM 39.2 °F 37.0 °F 33.8 °F 81% 30.36 in 2.5 mi NNE 3.5 mph - N/A   Haze
7:32 AM 39.2 °F 37.0 °F 33.8 °F 81% 30.36 in 2.0 mi NNE 3.5 mph - N/A   Haze
7:42 AM 39.2 °F 37.0 °F 33.8 °F 81% 30.36 in 2.5 mi NNE 3.5 mph - N/A   Haze
7:44 AM 39.2 °F 37.0 °F 33.8 °F 81% 30.36 in 3.0 mi North 3.5 mph - N/A   Haze
7:55 AM 40.3 °F 37.1 °F 31.5 °F 71% 30.37 in 10.0 mi NNE 4.6 mph - N/A   Overcast
8:55 AM 41.2 °F 37.3 °F 30.6 °F 66% 30.39 in 9.0 mi Variable 5.8 mph - N/A   Partly Cloudy
9:55 AM 42.3 °F 38.6 °F 27.1 °F 55% 30.42 in 10.0 mi NNE 5.8 mph - N/A   Scattered Clouds
10:55 AM 43.2 °F 37.9 °F 27.1 °F 53% 30.43 in 10.0 mi North 9.2 mph - N/A   Mostly Cloudy
11:55 AM 44.2 °F 38.4 °F 24.6 °F 46% 30.42 in 10.0 mi NNE 11.5 mph - N/A   Mostly Cloudy
12:55 PM 45.3 °F 40.1 °F 23.2 °F 42% 30.41 in 10.0 mi North 10.4 mph - N/A   Scattered Clouds
1:55 PM 45.5 °F 40.8 °F 23.9 °F 43% 30.38 in 10.0 mi NNE 9.2 mph - N/A   Mostly Cloudy
3:55 PM 45.9 °F 41.7 °F 22.6 °F 40% 30.36 in 10.0 mi NNW 8.1 mph - N/A   Mostly Cloudy
4:55 PM 45.9 °F 42.9 °F 22.5 °F 40% 30.35 in 10.0 mi NNW 5.8 mph - N/A   Mostly Cloudy
5:55 PM 45.9 °F 43.6 °F 24.1 °F 42% 30.35 in 10.0 mi NW 4.6 mph - N/A   Scattered Clouds
6:55 PM 45.3 °F 44.0 °F 25.9 °F 47% 30.35 in 10.0 mi NW 3.5 mph - N/A   Scattered Clouds
7:55 PM 45.0 °F 42.6 °F 23.9 °F 44% 30.35 in 10.0 mi NNW 4.6 mph - N/A   Partly Cloudy
8:55 PM 43.9 °F 40.5 °F 21.7 °F 41% 30.37 in 10.0 mi NNW 5.8 mph - N/A   Scattered Clouds
11:55 PM 42.6 °F 38.4 °F 22.3 °F 45% 30.38 in 10.0 mi NW 6.9 mph - N/A   Overcast